Tracking 22879 objects as of 21-Apr-2021
HD Live streaming from Space Station
objects crossing your sky now

DELTA 1 DEB

Track DELTA 1 DEB now!
10-day predictions


NORAD ID: 7088
Int'l Code: 1973-086CG
Perigee: 1,135.9 km
Apogee: 1,539.6 km
Inclination: 102.4 °
Period: 112.3 minutes
Semi major axis: 7708 km
RCS: 0.0368 m2 (small)
Launch date: November 6, 1973
Source: United States (US)
Launch site: AIR FORCE WESTERN TEST RANGE (AFWTR)

Note: This is SATELLITE DEBRIS
aabbcc
Your satellite tracking list
Your tracking list is empty




NASA's NSSDC Master Catalog

Two Line Element Set (TLE):
1 07088U 73086CG  21111.43202441  .00000142  00000-0  71923-3 0  9995
2 07088 102.4019 175.6207 0261848 230.7991 139.7343 12.82706097210993
Source of the keplerian elements: AFSPC